This demonstration page uses our WeatherBlox Daily Observations layout. Learn more.

39.92423, -83.80882

Hourly Observations for December 2, 2017

Temp ( °F °C ) Dew Point ( °F °C ) Humidity (%) Winds ( mph kmh ) Pressure ( in mb ) Visibility ( mi km ) Precip ( " mm )
12:56 am 00:56 Clear 27 -2.8 25 -3.9 92 92 ESE 5 7 30.23 1024 9 14.48406 0 0
1:56 am 01:56 Clear 25 -3.9 24 -4.4 96 96 ESE 5 7 30.22 1024 10 16.0934 0 0
2:56 am 02:56 Clear 26 -3.3 25 -3.9 96 96 SE 5 7 30.22 1024 10 16.0934 0 0
3:56 am 03:56 Clear 26 -3.3 24 -4.4 92 92 SE 3 6 30.23 1024 9 14.48406 0 0
4:56 am 04:56 Clear 24 -4.4 22 -5.6 91 91 ENE 5 7 30.23 1024 7 11.26538 0 0
5:56 am 05:56 Clear 26 -3.3 25 -3.9 96 96 E 6 9 30.23 1024 9 14.48406 0 0
6:56 am 06:56 Clear 27 -2.8 26 -3.3 96 96 Calm 30.24 1024 10 16.0934 0 0
7:56 am 07:56 Sunny 28 -2.2 27 -2.8 96 96 E 3 6 30.24 1024 8 12.87472 0 0
8:56 am 08:56 Sunny 32 0 31 -0.6 96 96 Calm 30.25 1024 9 14.48406 0 0
9:56 am 09:56 Partly Cloudy 38 3.3 33 0.6 83 83 Calm 30.26 1025 10 16.0934 0 0
10:56 am 10:56 Mostly Cloudy 43 6.1 35 1.7 74 74 Calm 30.25 1024 10 16.0934 0 0
11:56 am 11:56 Mostly Cloudy 46 7.8 36 2.2 68 68 SE 7 11 30.2 1023 10 16.0934 0 0
12:56 pm 12:56 Sunny 49 9.4 34 1.1 56 56 VRB 5 7 30.18 1022 10 16.0934 0 0
1:56 pm 13:56 Sunny 51 10.6 33 0.6 50 50 S 5 7 30.16 1022 10 16.0934 0 0
2:56 pm 14:56 Mostly Cloudy 51 10.6 33 0.6 50 50 S 7 11 30.14 1021 10 16.0934 0 0
3:56 pm 15:56 Partly Cloudy 51 10.6 33 0.6 50 50 SSE 7 11 30.14 1021 10 16.0934 0 0
4:56 pm 16:56 Mostly Sunny 48 8.9 32 0 54 54 SSE 3 6 30.15 1021 10 16.0934 0 0
5:56 pm 17:56 Clear 42 5.6 32 0 68 68 Calm 30.17 1022 10 16.0934 0 0
6:56 pm 18:56 Clear 40 4.4 31 -0.6 70 70 ESE 3 6 30.17 1022 10 16.0934 0 0
8:56 pm 20:56 Clear 33 0.6 28 -2.2 82 82 Calm 30.16 1022 10 16.0934 0 0
9:56 pm 21:56 Clear 33 0.6 29 -1.7 85 85 Calm 30.19 1022 10 16.0934 0 0
10:56 pm 22:56 Clear 32 0 28 -2.2 85 85 Calm 30.18 1022 10 16.0934 0 0
11:56 pm 23:56 Clear 30 -1.1 29 -1.7 96 96 Calm 30.18 1022 10 16.0934 0 0

Powered by AerisWeather